Location: Unnamed
(51.5169°N, 0.1311°W)
Time: 20:16:05
(UTC+01:00)

Tiros 1 - Pass Details

Date: 09 August 2024
Orbit: 623 x 655 km, 48.4° (Epoch: 16 September)

Event Time Altitude Azimuth Distance (km) Brightness Sun altitude
Rises 09:07:14 0° 258° (WSW) 2,978 10.1 30.9°
Reaches altitude 10° 09:09:36 10° 254° (WSW) 2,066 9.4 31.3°
Maximum altitude 09:14:17 60° 176° (S) 753 8.2 32.0°
Drops below altitude 10° 09:18:58 10° 97° (E) 2,056 11.2 32.7°
Sets 09:21:19 0° 94° (E) 2,962 11.6 33.0°
